Location: De Greiden
(52.9496°N, 5.9137°E)
Time: 02:14:26
(UTC+00:00)

NOSS 3-1 (A) - Pass Details

Date: 24 January 2021
Orbit: 735 x 1477 km, 63.4° (Epoch: 26 February)

Event Time Altitude Azimuth Distance (km) Brightness Sun altitude
Rises 16:54:59 0° 307° (NW) 3,725 7.0 -7.4°
Reaches altitude 10° 16:57:28 10° 312° (NW) 2,874 6.3 -7.7°
Maximum altitude 17:04:16 55° 30° (NNE) 1,419 4.1 -8.7°
Drops below altitude 10° 17:12:20 10° 107° (ESE) 3,395 5.8 -9.8°
Enters shadow 17:15:14 - 112° (ESE) 4,358 6.4 -10.2°
